GW1985 Weather Reports


time (UTC)temp
C
wind
direction
speed
KPH
gust
KPH
rain 1hr
cm
rain 24hr
cm
rain mn
cm
humidity
%
barometer
mb
20260502214326 18 233 3.2 4.8 0.00 0.00 0.00 37 1013.2
20260502213824 18 267 4.8 8.0 0.00 0.00 0.00 37 1013.0
20260502213321 18 218 4.8 9.7 0.00 0.00 0.00 36 1013.5
20260502212820 18 243 14.5 16.1 0.00 0.00 0.00 36 1013.5
20260502212318 18 241 4.8 4.8 0.00 0.00 0.00 36 1013.3
20260502211815 19 201 6.4 8.0 0.00 0.00 0.00 35 1013.2
20260502211310 19 279 8.0 9.7 0.00 0.00 0.00 37 1013.5
20260502210808 19 192 1.6 3.2 0.00 0.00 0.00 36 1013.7
20260502210305 18 226 4.8 4.8 0.00 0.00 0.00 36 1013.6
20260502205802 19 158 16.1 17.7 0.00 0.00 0.00 35 1013.6
20260502205258 18 230 1.6 4.8 0.00 0.00 0.00 37 1013.9
20260502204755 18 230 4.8 8.0 0.00 0.00 0.00 37 1013.9
20260502204252 18 221 3.2 3.2 0.00 0.00 0.00 36 1014.0
20260502203750 18 243 1.6 4.8 0.00 0.00 0.00 36 1014.3
20260502203248 18 282 8.0 9.7 0.00 0.00 0.00 36 1014.3
20260502202742 18 224 4.8 4.8 0.00 0.00 0.00 36 1014.4
20260502202240 18 234 9.7 14.5 0.00 0.00 0.00 36 1014.7
20260502201738 18 277 11.3 12.9 0.00 0.00 0.00 35 1014.5
20260502201234 18 250 8.0 9.7 0.00 0.00 0.00 36 1014.9
20260502200730 18 211 4.8 8.0 0.00 0.00 0.00 37 1014.8
20260502200226 18 273 8.0 11.3 0.00 0.00 0.00 37 1015.0
20260502195725 17 234 1.6 3.2 0.00 0.00 0.00 38 1015.1
20260502195221 18 251 4.8 4.8 0.00 0.00 0.00 37 1015.1
20260502194717 17 263 8.0 11.3 0.00 0.00 0.00 36 1015.4
20260502194215 17 200 8.0 11.3 0.00 0.00 0.00 38 1015.5
20260502193710 17 220 0.0 0.0 0.00 0.00 0.00 37 1015.5
20260502193209 17 267 4.8 11.3 0.00 0.00 0.00 35 1015.7
20260502192703 17 189 1.6 1.6 0.00 0.00 0.00 37 1015.5
20260502192201 17 249 6.4 8.0 0.00 0.00 0.00 36 1015.5
20260502191657 17 229 3.2 3.2 0.00 0.00 0.00 38 1015.9
20260502191155 17 256 4.8 8.0 0.00 0.00 0.00 37 1016.3
20260502190652 17 177 3.2 4.8 0.00 0.00 0.00 36 1016.1
20260502190150 17 182 6.4 9.7 0.00 0.00 0.00 36 1016.2
20260502185644 17 228 6.4 11.3 0.00 0.00 0.00 38 1016.2
20260502185141 17 220 8.0 14.5 0.00 0.00 0.00 37 1016.3
20260502184637 16 166 3.2 3.2 0.00 0.00 0.00 38 1016.4
20260502184133 16 220 11.3 12.9 0.00 0.00 0.00 37 1016.5
20260502183630 16 170 8.0 11.3 0.00 0.00 0.00 37 1016.6
20260502183126 16 215 4.8 8.0 0.00 0.00 0.00 38 1017.0
20260502182621 16 168 1.6 3.2 0.00 0.00 0.00 37 1016.9
20260502182117 16 229 0.0 0.0 0.00 0.00 0.00 38 1016.9
20260502181615 16 175 1.6 1.6 0.00 0.00 0.00 38 1017.1
20260502181114 15 202 3.2 4.8 0.00 0.00 0.00 39 1017.1
20260502180610 16 156 1.6 3.2 0.00 0.00 0.00 40 1017.4
20260502180108 15 186 4.8 8.0 0.00 0.00 0.00 38 1017.3
20260502164008 13 257 6.4 9.7 0.00 0.00 0.00 41 1018.5
20260502163503 13 278 14.5 17.7 0.00 0.00 0.00 39 1018.5
20260502163001 13 171 0.0 1.6 0.00 0.00 0.00 42 1018.6
20260502162457 13 226 6.4 8.0 0.00 0.00 0.00 40 1018.9
20260502161954 12 276 6.4 11.3 0.00 0.00 0.00 42 1018.8
20260502161450 12 261 8.0 9.7 0.00 0.00 0.00 41 1019.1
20260502160949 12 277 6.4 8.0 0.00 0.00 0.00 41 1019.0
20260502160446 12 235 4.8 4.8 0.00 0.00 0.00 41 1018.9
20260502151935 11 313 3.2 4.8 0.00 0.00 0.00 46 1019.5
20260502151432 11 270 6.4 9.7 0.00 0.00 0.00 46 1019.5
20260502150930 11 304 9.7 12.9 0.00 0.00 0.00 46 1019.5
20260502150426 11 236 4.8 8.0 0.00 0.00 0.00 45 1019.7
20260502130312 7 284 0.0 0.0 0.00 0.00 0.00 60 1020.2
20260502123757 6 276 0.0 0.0 0.00 0.00 0.00 63 1020.2
20260502123254 6 249 0.0 0.0 0.00 0.00 0.00 64 1020.1
20260502122751 5 291 0.0 0.0 0.00 0.00 0.00 66 1020.2
20260502122247 5 265 0.0 0.0 0.00 0.00 0.00 66 1020.1
20260502121745 5 245 0.0 0.0 0.00 0.00 0.00 67 1020.1
20260502121243 5 256 0.0 0.0 0.00 0.00 0.00 68 1020.2
20260502120739 5 319 0.0 0.0 0.00 0.00 0.00 69 1020.1
20260502120236 4 293 0.0 0.0 0.00 0.00 0.00 70 1020.1
20260502115734 4 272 0.0 0.0 0.00 0.00 0.00 70 1020.2
20260502115231 3 248 0.0 0.0 0.00 0.00 0.00 70 1020.0
20260502114726 3 269 0.0 0.0 0.00 0.00 0.00 70 1020.0
20260502114224 3 262 0.0 0.0 0.00 0.00 0.00 71 1020.1
20260502113721 3 279 0.0 0.0 0.00 0.00 0.00 72 1020.0
20260502113219 3 271 0.0 1.6 0.00 0.00 0.00 71 1020.0
20260502112716 3 255 0.0 0.0 0.00 0.00 0.00 72 1020.0
20260502112214 3 244 0.0 0.0 0.00 0.00 0.00 72 1020.0
20260502111711 3 279 0.0 0.0 0.00 0.00 0.00 71 1020.0
20260502111209 3 245 0.0 0.0 0.00 0.00 0.00 70 1020.0
20260502110706 3 286 3.2 4.8 0.00 0.00 0.00 70 1019.9
20260502110203 3 259 0.0 0.0 0.00 0.00 0.00 71 1019.9
20260502105701 2 216 0.0 0.0 0.00 0.00 0.00 72 1019.9
20260502105157 2 203 0.0 0.0 0.00 0.00 0.00 72 1019.9
20260502104655 2 217 0.0 0.0 0.00 0.00 0.00 72 1019.7
20260502104153 2 203 0.0 0.0 0.00 0.00 0.00 72 1019.9
20260502103650 2 208 0.0 0.0 0.00 0.00 0.00 71 1019.7
20260502103148 2 221 0.0 0.0 0.00 0.00 0.00 71 1019.7
20260502102644 2 209 0.0 0.0 0.00 0.00 0.00 71 1020.0
20260502102141 2 199 0.0 0.0 0.00 0.00 0.00 72 1019.7
20260502101639 2 199 0.0 0.0 0.00 0.00 0.00 72 1019.8
20260502101137 2 199 0.0 0.0 0.00 0.00 0.00 72 1019.9
20260502100635 2 199 0.0 0.0 0.00 0.00 0.00 71 1019.7
20260502100133 3 204 0.0 0.0 0.00 0.00 0.00 70 1019.8
20260502091107 3 202 0.0 0.0 0.00 0.00 0.00 68 1019.6
20260502090604 3 202 0.0 0.0 0.00 0.00 0.00 66 1019.6
20260502071458 6 259 3.2 3.2 0.00 0.00 0.00 57 1019.9
20260502070956 6 242 1.6 4.8 0.00 0.00 0.00 56 1020.0
20260502070454 6 252 0.0 0.0 0.00 0.00 0.00 56 1019.8
20260502065953 6 255 1.6 3.2 0.00 0.00 0.00 56 1020.0
20260502065451 6 216 0.0 0.0 0.00 0.00 0.00 55 1020.1
20260502064948 6 264 0.0 3.2 0.00 0.00 0.00 55 1020.0
20260502064446 6 250 0.0 0.0 0.00 0.00 0.00 55 1020.1
20260502063943 6 231 0.0 0.0 0.00 0.00 0.00 57 1020.1
20260502063441 6 263 0.0 0.0 0.00 0.00 0.00 55 1020.0
20260502062938 6 268 3.2 8.0 0.00 0.00 0.00 55 1020.2
20260502062435 6 251 4.8 4.8 0.00 0.00 0.00 54 1020.1
20260502061934 6 240 1.6 3.2 0.00 0.00 0.00 54 1020.1
20260502061431 6 245 0.0 0.0 0.00 0.00 0.00 54 1020.3
20260502060927 6 251 0.0 0.0 0.00 0.00 0.00 54 1020.1
20260502060422 6 285 1.6 8.0 0.00 0.00 0.00 55 1020.2
20260502055920 6 242 3.2 4.8 0.00 0.00 0.00 54 1020.0
20260502055417 6 239 1.6 3.2 0.00 0.00 0.00 54 1020.3
20260502054912 6 226 0.0 0.0 0.00 0.00 0.00 55 1020.2
20260502054409 6 253 0.0 1.6 0.00 0.00 0.00 55 1020.2
20260502053906 7 242 1.6 4.8 0.00 0.00 0.00 54 1020.2
20260502053404 7 261 1.6 1.6 0.00 0.00 0.00 54 1020.2
20260502052900 7 301 1.6 4.8 0.00 0.00 0.00 54 1020.3
20260502052359 7 254 0.0 0.0 0.00 0.00 0.00 53 1020.2
20260502051856 7 268 4.8 9.7 0.00 0.00 0.00 54 1020.0
20260502051355 7 245 3.2 3.2 0.00 0.00 0.00 53 1020.2
20260502050851 7 245 0.0 0.0 0.00 0.00 0.00 55 1020.1
20260502050347 7 244 0.0 0.0 0.00 0.00 0.00 54 1020.2
20260502045844 7 236 1.6 3.2 0.00 0.00 0.00 54 1020.1
20260502045341 7 257 3.2 4.8 0.00 0.00 0.00 54 1020.4
20260502044838 7 269 4.8 4.8 0.00 0.00 0.00 54 1020.4
20260502044334 6 232 1.6 1.6 0.00 0.00 0.00 55 1020.2
20260502043831 6 247 3.2 3.2 0.00 0.00 0.00 57 1020.2
20260502043328 5 218 1.6 3.2 0.00 0.00 0.00 58 1020.2
20260502042823 5 190 0.0 0.0 0.00 0.00 0.00 60 1020.2
20260502042320 5 220 0.0 0.0 0.00 0.00 0.00 61 1020.2
20260502041818 5 220 0.0 0.0 0.00 0.00 0.00 60 1020.1
20260502041315 5 220 0.0 0.0 0.00 0.00 0.00 61 1020.0
20260502040812 4 220 0.0 0.0 0.00 0.00 0.00 62 1020.2
20260502040308 5 220 0.0 0.0 0.00 0.00 0.00 60 1020.0
20260502035804 5 220 0.0 0.0 0.00 0.00 0.00 59 1020.3
20260502035301 5 220 0.0 0.0 0.00 0.00 0.00 59 1020.1
20260502034759 5 220 0.0 0.0 0.00 0.00 0.00 58 1020.1
20260502034257 5 220 0.0 0.0 0.00 0.00 0.00 59 1020.3
20260502033755 5 220 0.0 0.0 0.00 0.00 0.00 59 1020.3
20260502033252 5 220 0.0 0.0 0.00 0.00 0.00 60 1020.2
20260502032749 5 220 0.0 0.0 0.00 0.00 0.00 60 1020.0
20260502032245 5 220 0.0 0.0 0.00 0.00 0.00 58 1020.2
20260502031743 5 220 0.0 0.0 0.00 0.00 0.00 58 1020.2
20260502031240 6 220 0.0 0.0 0.00 0.00 0.00 56 1020.1
20260502030739 6 220 0.0 0.0 0.00 0.00 0.00 57 1020.2
20260502030237 6 220 0.0 0.0 0.00 0.00 0.00 55 1020.1
20260502025734 6 220 0.0 0.0 0.00 0.00 0.00 55 1020.2
20260502025232 6 220 0.0 0.0 0.00 0.00 0.00 55 1020.2
20260502024729 6 220 0.0 0.0 0.00 0.00 0.00 55 1020.2
20260502024227 6 220 0.0 0.0 0.00 0.00 0.00 54 1020.2
20260502023725 7 221 0.0 0.0 0.00 0.00 0.00 54 1020.2
20260502023222 7 221 0.0 0.0 0.00 0.00 0.00 49 1020.3
20260502022720 7 221 0.0 0.0 0.00 0.00 0.00 49 1020.3
20260502022216 7 226 0.0 0.0 0.00 0.00 0.00 49 1020.1
20260502021713 6 226 0.0 0.0 0.00 0.00 0.00 54 1020.1
20260502021210 6 226 0.0 0.0 0.00 0.00 0.00 53 1020.0
20260502020707 6 226 0.0 0.0 0.00 0.00 0.00 52 1020.2
20260502020204 7 226 0.0 0.0 0.00 0.00 0.00 52 1019.9
20260502015703 7 226 0.0 0.0 0.00 0.00 0.00 51 1019.8
20260502015158 7 226 0.0 0.0 0.00 0.00 0.00 50 1019.7
20260502014656 7 226 0.0 0.0 0.00 0.00 0.00 48 1019.8
20260502014153 8 226 0.0 0.0 0.00 0.00 0.00 48 1019.6
20260502013649 8 226 0.0 0.0 0.00 0.00 0.00 48 1019.6
20260502013144 8 226 0.0 0.0 0.00 0.00 0.00 45 1019.6
20260502012642 9 227 0.0 0.0 0.00 0.00 0.00 43 1019.7
20260502012140 10 238 0.0 0.0 0.00 0.00 0.00 42 1019.6
20260502011636 10 222 0.0 0.0 0.00 0.00 0.00 42 1019.6
20260502011132 10 261 0.0 0.0 0.00 0.00 0.00 42 1019.6
20260502010630 10 247 0.0 0.0 0.00 0.00 0.00 41 1019.6
20260502010126 10 318 6.4 9.7 0.00 0.00 0.00 39 1019.7
20260502005623 10 296 0.0 0.0 0.00 0.00 0.00 40 1019.4
20260502005121 10 228 1.6 3.2 0.00 0.00 0.00 39 1019.6
20260502004617 10 315 0.0 0.0 0.00 0.00 0.00 40 1019.5
20260502004114 10 278 0.0 0.0 0.00 0.00 0.00 38 1019.6
20260502003612 10 277 4.8 8.0 0.00 0.00 0.00 38 1019.6
20260502003108 11 334 20.9 24.1 0.00 0.00 0.00 37 1019.5
20260502002604 11 269 6.4 12.9 0.00 0.00 0.00 37 1019.6
20260502002102 11 352 3.2 3.2 0.00 0.00 0.00 36 1019.6
20260502001600 11 320 8.0 9.7 0.00 0.00 0.00 35 1019.5
20260502001056 11 305 3.2 8.0 0.00 0.00 0.00 37 1019.5
20260502000555 11 334 6.4 8.0 0.00 0.00 0.00 37 1019.7
20260502000052 11 279 0.0 0.0 0.00 0.00 0.00 38 1019.5
20260501235547 11 248 0.0 0.0 0.00 0.00 0.00 38 1019.5
20260501235043 11 311 0.0 1.6 0.00 0.00 0.00 38 1019.6
20260501234539 11 323 6.4 8.0 0.00 0.00 0.00 37 1019.5
20260501234038 12 278 0.0 0.0 0.00 0.00 0.00 37 1019.4
20260501233535 11 340 0.0 0.0 0.00 0.00 0.00 37 1019.3
20260501233032 12 248 1.6 3.2 0.00 0.00 0.00 37 1019.4
20260501232528 11 304 6.4 8.0 0.00 0.00 0.00 36 1019.4
20260501232025 11 267 8.0 9.7 0.00 0.00 0.00 37 1019.6
20260501231523 12 257 0.0 0.0 0.00 0.00 0.00 38 1019.4
20260501231021 11 290 4.8 8.0 0.00 0.00 0.00 37 1019.6
20260501230520 11 285 4.8 4.8 0.00 0.00 0.00 37 1019.7
20260501230017 11 314 14.5 20.9 0.00 0.00 0.00 37 1019.5
20260501225515 12 19 9.7 12.9 0.00 0.00 0.00 37 1019.6
20260501225010 11 272 0.0 0.0 0.00 0.00 0.00 38 1019.4
20260501224508 11 205 1.6 1.6 0.00 0.00 0.00 36 1019.6
20260501224005 11 355 3.2 3.2 0.00 0.00 0.00 36 1019.7
20260501223502 10 344 4.8 4.8 0.00 0.00 0.00 38 1019.6
20260501222957 10 352 6.4 8.0 0.00 0.00 0.00 38 1019.7
20260501222454 10 341 3.2 3.2 0.00 0.00 0.00 40 1019.9
20260501221950 10 293 8.0 11.3 0.00 0.00 0.00 39 1019.7
20260501221447 10 294 8.0 9.7 0.00 0.00 0.00 39 1019.8
20260501220946 10 302 6.4 9.7 0.00 0.00 0.00 38 1019.6
20260501220443 10 310 4.8 4.8 0.00 0.00 0.00 38 1019.7
20260501215938 10 314 3.2 3.2 0.00 0.00 0.00 38 1019.7
20260501215436 10 347 4.8 8.0 0.00 0.00 0.00 39 1019.8
20260501214931 10 329 6.4 8.0 0.00 0.00 0.00 39 1019.8